Location: ??????
(55.2000°N, 38.3000°E)
Time: 18:21:41
(UTC+00:00)

NOSS 3-2 (C) - Pass Details

Date: 15 November 2025
Orbit: 674 x 1535 km, 63.4° (Epoch: 13 November)

Event Time Altitude Azimuth Distance (km) Brightness Sun altitude
Exits shadow 01:11:41 42° 354° (N) 1,451 4.3 -32.0°
Maximum altitude 01:12:14 43° 6° (N) 1,453 4.4 -32.0°
Drops below altitude 10° 01:19:23 10° 76° (ENE) 3,195 7.1 -31.0°
Sets 01:22:39 0° 83° (E) 4,295 8.0 -30.5°
